"Pseudo-MPEC" for C0J7CJ5

Created 2023 Sep 20 17:22:03 UT using Find_Orb

Click here for an explanation of pseudo-MPECs

 
 Astrometry: 
     C0J7CJ5* C2023 09 18.37675001 58 54.275+37 16 14.74   ~9IA7 22.94GVNEOCPV00
     C0J7CJ5  C2023 09 18.38289701 58 55.060+37 16 16.90   ~9IA7 22.49GVNEOCPV00
     C0J7CJ5  C2023 09 18.38900301 58 55.866+37 16 19.13   ~9IA7 22.11GVNEOCPV00
     C0J7CJ5  C2023 09 18.39511301 58 56.712+37 16 21.11   ~9IA7 21.90GVNEOCPV00
     C0J7CJ5 mC2023 09 18.44884301 59 03.955+37 16 38.82   ~9IBM 22.65GVNEOCPV00
     C0J7CJ5 mC2023 09 18.45166601 59 04.362+37 16 39.83   ~9IBM       VNEOCPV00
     C0J7CJ5 mC2023 09 18.45464301 59 04.754+37 16 40.51   ~9IBM 23.25GVNEOCPV00
     C0J7CJ5 mC2023 09 18.45746401 59 05.147+37 16 41.63   ~9IBM 22.53GVNEOCPV00
     C0J7CJ5 KC2023 09 19.28946 02 01 06.12 +37 21 00.7    ~9J8M       oNEOCP291
     C0J7CJ5 KC2023 09 19.30386 02 01 08.03 +37 21 05.5    ~9J8M       oNEOCP291
     C0J7CJ5 KC2023 09 19.31826 02 01 09.93 +37 21 09.8    ~9J8M 22.0 RoNEOCP291
     C0J7CJ5 KC2023 09 20.28100 02 03 26.98 +37 25 26.1    ~9K8b 22.6 RoNEOCP291
     C0J7CJ5 KC2023 09 20.29831 02 03 29.24 +37 25 31.3    ~9K8b 22.0 RoNEOCP291
     C0J7CJ5 KC2023 09 20.31564 02 03 31.55 +37 25 36.1    ~9K8b       oNEOCP291

Station data:
(291) LPL/Spacewatch II  (N31.961669 W111.599905)  US/Arizona.  Observers J.
   V. Scotti, R. S. McMillan. 1.8-m f/2.7 reflector + CCD.
(V00) Kitt Peak-Bok  (N31.963125 W111.600190)  US/Arizona.  Observers T. A.
   Pruyne, B. M. Africano, E. J. Christensen, G. A. Farneth, D. C. Fuls, A.
   R. Gibbs, A. D. Grauer, H. Gröller, J. A. Johnson, R. A. Kowalski, S. M.
   Larson, G. J. Leonard, D. Rankin, R. L. Seaman, F. C. Shelly, K. W.
   Wierzchoś. 2.25-m reflector + 4x4K mosaic CCD.

Orbital elements:  C0J7CJ5
   Perihelion 2023 Sep 24.59739 +/- 1.26 TT = 14:20:14 (JD 2460212.09739)
Epoch 2023 Sep 20.0 TT = JDT 2460207.5   Earth MOID: 0.3284   Ma: 0.0187
M 358.95369262 +/- 0.39             (J2000 ecliptic)             AutoNEOCP
n   0.22758705 +/- 0.026            Peri.  129.29587 +/- 1.7
a   2.65687433 +/- 0.202            Node   242.42399 +/- 1.0
e   0.5102451 +/- 0.0329            Incl.    8.69171 +/- 0.16
P   4.33                   H 22.66  G  0.15   U 10.3
q 1.30121721 +/- 0.0116    Q 4.01253144 +/- 0.393
From 14 observations 2023 Sept. 18-20 (46.5 hr); mean residual 0".22
Residuals in arcseconds: 
230918 V00  .33+  .14-    230918 V00  .21+  .17+    230919 291  .48-  .28-    
230918 V00  .19-  .12-    230918 V00  .09+  .08-    230920 291  .40+  .13-    
230918 V00  .39-  .01+    230918 V00  .23+  .16+    230920 291  .22-  .08+    
230918 V00  .12-  .10-    230919 291  .42+  .19+    230920 291  .14-  .01+    
230918 V00  .10-  .04+    230919 291  .01-  .16+    

Ephemerides (geocentric):
Date (UTC) HH   RA             Dec           delta  r     elong  mag " sig PA
---- --------  ------------   ------------  ------ ------ -----  --- --------
2023 09 20 17  02 04 26.033   +37 27 06.52  .40257 1.3019 130.4 22.7 .361  49
2023 09 20 18  02 04 31.879   +37 27 15.74  .40247 1.3019 130.4 22.7 .364  45
2023 09 20 19  02 04 37.721   +37 27 24.86  .40237 1.3019 130.4 22.7 .369  41
2023 09 20 20  02 04 43.561   +37 27 33.90  .40227 1.3018 130.5 22.7 .376  37
2023 09 20 21  02 04 49.397   +37 27 42.84  .40217 1.3018 130.5 22.7 .385  32
2023 09 20 22  02 04 55.231   +37 27 51.71  .40207 1.3018 130.5 22.7 .396  28
2023 09 20 23  02 05 01.061   +37 28 00.48  .40197 1.3018 130.5 22.7 .410  24
2023 09 21 00  02 05 06.887   +37 28 09.17  .40187 1.3018 130.5 22.7 .426  20
2023 09 21 01  02 05 12.711   +37 28 17.77  .40177 1.3018 130.6 22.7 .444  16
2023 09 21 02  02 05 18.531   +37 28 26.28  .40167 1.3018 130.6 22.7 .465  13
2023 09 21 03  02 05 24.348   +37 28 34.70  .40157 1.3018 130.6 22.7 .488  10
2023 09 21 04  02 05 30.161   +37 28 43.04  .40148 1.3017 130.6 22.7 .513   7
2023 09 21 05  02 05 35.971   +37 28 51.29  .40138 1.3017 130.6 22.7 .540   4
2023 09 21 06  02 05 41.778   +37 28 59.45  .40128 1.3017 130.7 22.7 .569   1
2023 09 21 07  02 05 47.582   +37 29 07.53  .40118 1.3017 130.7 22.7 .600 178
2023 09 21 08  02 05 53.382   +37 29 15.51  .40108 1.3017 130.7 22.7 .633 176
2023 09 21 09  02 05 59.179   +37 29 23.41  .40098 1.3017 130.7 22.7 .667 174
2023 09 21 10  02 06 04.973   +37 29 31.22  .40088 1.3017 130.7 22.7 .704 172
2023 09 21 11  02 06 10.763   +37 29 38.95  .40079 1.3017 130.8 22.7 .742 170
2023 09 21 12  02 06 16.550   +37 29 46.59  .40069 1.3016 130.8 22.7 .781 168
2023 09 21 13  02 06 22.334   +37 29 54.13  .40059 1.3016 130.8 22.7 .822 167
2023 09 21 14  02 06 28.114   +37 30 01.59  .40049 1.3016 130.8 22.7 .865 165
2023 09 21 15  02 06 33.891   +37 30 08.97  .40040 1.3016 130.8 22.7 .909 164
2023 09 21 16  02 06 39.665   +37 30 16.25  .40030 1.3016 130.8 22.7 .955 163
2023 09 21 17  02 06 45.435   +37 30 23.45  .40020 1.3016 130.9 22.7 1.00 162
2023 09 21 18  02 06 51.202   +37 30 30.56  .40010 1.3016 130.9 22.7 1.05 160
2023 09 21 19  02 06 56.965   +37 30 37.58  .40001 1.3016 130.9 22.7 1.10 159
2023 09 21 20  02 07 02.725   +37 30 44.52  .39991 1.3016 130.9 22.7 1.15 159
2023 09 21 21  02 07 08.482   +37 30 51.36  .39981 1.3015 130.9 22.7 1.20 158
2023 09 21 22  02 07 14.235   +37 30 58.12  .39972 1.3015 131.0 22.7 1.26 157
2023 09 21 23  02 07 19.984   +37 31 04.79  .39962 1.3015 131.0 22.7 1.31 156
2023 09 22 00  02 07 25.731   +37 31 11.37  .39952 1.3015 131.0 22.7 1.37 155
2023 09 22 01  02 07 31.473   +37 31 17.87  .39943 1.3015 131.0 22.7 1.42 155
2023 09 22 02  02 07 37.213   +37 31 24.27  .39933 1.3015 131.0 22.7 1.48 154
2023 09 22 03  02 07 42.949   +37 31 30.59  .39924 1.3015 131.1 22.7 1.54 153
2023 09 22 04  02 07 48.681   +37 31 36.82  .39914 1.3015 131.1 22.7 1.60 153
2023 09 22 05  02 07 54.410   +37 31 42.96  .39904 1.3015 131.1 22.7 1.67 152
2023 09 22 06  02 08 00.136   +37 31 49.02  .39895 1.3015 131.1 22.7 1.73 152
2023 09 22 07  02 08 05.858   +37 31 54.99  .39885 1.3015 131.1 22.7 1.80 151
2023 09 22 08  02 08 11.576   +37 32 00.86  .39876 1.3014 131.2 22.7 1.86 151
2023 09 22 09  02 08 17.291   +37 32 06.65  .39866 1.3014 131.2 22.7 1.93 150
2023 09 22 10  02 08 23.003   +37 32 12.35  .39857 1.3014 131.2 22.7 2.00 150
2023 09 22 11  02 08 28.710   +37 32 17.97  .39847 1.3014 131.2 22.7 2.07 149
2023 09 22 12  02 08 34.415   +37 32 23.49  .39838 1.3014 131.2 22.7 2.14 149
2023 09 22 13  02 08 40.116   +37 32 28.93  .39828 1.3014 131.3 22.7 2.21 149
2023 09 22 14  02 08 45.813   +37 32 34.28  .39819 1.3014 131.3 22.7 2.28 148
2023 09 22 15  02 08 51.507   +37 32 39.54  .39810 1.3014 131.3 22.7 2.36 148
2023 09 22 16  02 08 57.197   +37 32 44.71  .39800 1.3014 131.3 22.7 2.43 148